N9EA Weather Reports


time (UTC)temp
C
wind
direction
speed
KPH
gust
KPH
rain 1hr
cm
rain 24hr
cm
rain mn
cm
humidity
%
barometer
mb
20260504130349 15 220 4.8 4.8 0.00 0.00 0.00 60 1002.6
20260504120311 12 244 3.2 4.8 0.00 0.00 0.00 64 1002.8
20260504110236 11 255 0.0 1.6 0.00 0.00 0.00 66 1002.5
20260504100159 11 260 1.6 3.2 0.00 0.00 0.00 66 1003.2
20260504090122 11 284 0.0 0.0 0.00 0.00 0.00 65 1003.9
20260504081552 11 252 1.6 1.6 0.00 0.00 0.00 64 1004.0
20260504081048 11 183 0.0 0.0 0.00 0.00 0.00 64 1004.0
20260504080545 11 252 0.0 0.0 0.00 0.00 0.00 63 1004.2
20260504050352 15 212 0.0 1.6 0.00 0.00 0.00 56 1005.7
20260504045849 15 193 0.0 0.0 0.00 0.00 0.00 55 1005.7
20260504045344 15 200 1.6 1.6 0.00 0.00 0.00 55 1005.6
20260504044841 15 231 1.6 1.6 0.00 0.00 0.00 55 1005.6
20260504044338 15 160 0.0 0.0 0.00 0.00 0.00 54 1005.7
20260504043836 15 220 0.0 0.0 0.00 0.00 0.00 54 1005.7
20260504043332 15 219 0.0 0.0 0.00 0.00 0.00 54 1005.7
20260504042830 16 257 0.0 1.6 0.00 0.00 0.00 54 1005.8
20260504042326 16 196 0.0 0.0 0.00 0.00 0.00 53 1005.9
20260504041822 16 217 0.0 1.6 0.00 0.00 0.00 53 1005.8
20260504041318 16 162 0.0 1.6 0.00 0.00 0.00 53 1005.7
20260504040815 16 264 1.6 1.6 0.00 0.00 0.00 52 1005.6
20260504040313 16 233 1.6 1.6 0.00 0.00 0.00 52 1005.7
20260504035809 16 226 4.8 6.4 0.00 0.00 0.00 52 1005.9
20260504035306 16 234 1.6 1.6 0.00 0.00 0.00 52 1005.8
20260504034803 16 158 1.6 3.2 0.00 0.00 0.00 52 1005.8
20260504034301 16 207 3.2 3.2 0.00 0.00 0.00 51 1005.7
20260504033758 16 255 1.6 1.6 0.00 0.00 0.00 51 1005.9
20260504033255 16 187 1.6 1.6 0.00 0.00 0.00 51 1005.9
20260504032752 17 218 1.6 1.6 0.00 0.00 0.00 51 1005.9
20260504032249 17 273 1.6 3.2 0.00 0.00 0.00 50 1005.8
20260504031745 17 248 1.6 1.6 0.00 0.00 0.00 49 1006.0
20260504031243 17 189 1.6 3.2 0.00 0.00 0.00 49 1005.9
20260504030738 17 183 1.6 1.6 0.00 0.00 0.00 49 1005.9
20260504030236 17 225 1.6 1.6 0.00 0.00 0.00 48 1005.9
20260504025732 17 261 3.2 4.8 0.00 0.00 0.00 48 1005.8
20260504025229 17 203 1.6 3.2 0.00 0.00 0.00 48 1005.8
20260504024726 17 285 3.2 3.2 0.00 0.00 0.00 48 1005.7
20260504024223 18 279 4.8 6.4 0.00 0.00 0.00 47 1006.0
20260504023720 18 290 3.2 4.8 0.00 0.00 0.00 47 1005.6
20260504023216 18 261 3.2 3.2 0.00 0.00 0.00 47 1005.4
20260504022712 18 313 4.8 4.8 0.00 0.00 0.00 46 1005.6
20260504022208 18 288 1.6 3.2 0.00 0.00 0.00 47 1005.6
20260504021706 18 230 3.2 3.2 0.00 0.00 0.00 47 1005.5
20260504021203 18 248 3.2 4.8 0.00 0.00 0.00 47 1005.6
20260504020659 18 267 1.6 3.2 0.00 0.00 0.00 47 1005.4
20260504020155 18 194 1.6 3.2 0.00 0.00 0.00 46 1005.5
20260504015652 18 247 1.6 1.6 0.00 0.00 0.00 46 1005.4
20260504015148 18 254 1.6 3.2 0.00 0.00 0.00 46 1005.4
20260504014644 18 260 0.0 0.0 0.00 0.00 0.00 46 1005.4
20260504014141 19 216 1.6 3.2 0.00 0.00 0.00 45 1005.2
20260504013634 19 285 3.2 4.8 0.00 0.00 0.00 45 1005.3
20260504013131 19 295 3.2 4.8 0.00 0.00 0.00 45 1005.3
20260504012628 20 223 1.6 1.6 0.00 0.00 0.00 44 1005.2
20260504012126 20 210 3.2 3.2 0.00 0.00 0.00 44 1005.0
20260504011622 20 263 3.2 3.2 0.00 0.00 0.00 44 1005.0
20260504011118 20 238 4.8 4.8 0.00 0.00 0.00 44 1004.7
20260504010614 20 305 3.2 4.8 0.00 0.00 0.00 43 1004.9
20260504010110 20 300 3.2 6.4 0.00 0.00 0.00 43 1004.9
20260504005607 20 327 4.8 9.7 0.00 0.00 0.00 43 1005.1
20260504005104 20 317 4.8 4.8 0.00 0.00 0.00 43 1004.9
20260504004602 20 262 1.6 3.2 0.00 0.00 0.00 43 1005.0
20260504004059 20 305 3.2 4.8 0.00 0.00 0.00 43 1004.7
20260504003555 21 256 3.2 3.2 0.00 0.00 0.00 43 1004.8
20260504003052 21 226 4.8 4.8 0.00 0.00 0.00 42 1004.9
20260504002548 21 264 3.2 3.2 0.00 0.00 0.00 42 1004.7
20260504002046 21 205 3.2 3.2 0.00 0.00 0.00 42 1004.8
20260504001544 21 264 1.6 4.8 0.00 0.00 0.00 42 1004.8
20260504001039 21 275 3.2 6.4 0.00 0.00 0.00 42 1004.7
20260504000537 21 258 3.2 3.2 0.00 0.00 0.00 42 1004.8
20260504000034 21 263 4.8 6.4 0.00 0.00 0.00 42 1004.7
20260503235533 21 328 3.2 4.8 0.00 0.00 0.00 42 1004.8
20260503235029 21 275 3.2 6.4 0.00 0.00 0.00 42 1004.8
20260503234527 22 140 1.6 3.2 0.00 0.00 0.00 42 1004.9
20260503234025 22 158 0.0 1.6 0.00 0.00 0.00 42 1005.1
20260503233521 22 209 4.8 4.8 0.00 0.00 0.00 42 1005.1
20260503233017 22 215 3.2 4.8 0.00 0.00 0.00 41 1004.9
20260503232514 22 264 1.6 1.6 0.00 0.00 0.00 42 1005.0
20260503232012 22 176 3.2 3.2 0.00 0.00 0.00 41 1004.9
20260503231509 22 322 3.2 3.2 0.00 0.00 0.00 42 1005.0
20260503231006 22 290 4.8 4.8 0.00 0.00 0.00 42 1005.1
20260503230503 22 293 8.0 9.7 0.00 0.00 0.00 42 1005.3
20260503230000 22 277 6.4 9.7 0.00 0.00 0.00 42 1005.1
20260503225456 22 287 8.0 11.3 0.00 0.00 0.00 41 1005.1
20260503224952 22 338 8.0 12.9 0.00 0.00 0.00 41 1005.0
20260503224449 22 243 3.2 3.2 0.00 0.00 0.00 41 1005.1
20260503223947 22 194 8.0 11.3 0.00 0.00 0.00 40 1005.3
20260503223445 22 254 6.4 9.7 0.00 0.00 0.00 41 1005.2
20260503222940 22 284 4.8 4.8 0.00 0.00 0.00 41 1005.1
20260503222439 22 288 8.0 11.3 0.00 0.00 0.00 42 1005.0
20260503221937 22 316 8.0 11.3 0.00 0.00 0.00 42 1005.2
20260503221435 21 270 9.7 11.3 0.00 0.00 0.00 43 1005.1
20260503220931 22 333 3.2 4.8 0.00 0.00 0.00 42 1005.0
20260503220427 22 286 14.5 17.7 0.00 0.00 0.00 41 1005.2
20260503215925 22 194 3.2 6.4 0.00 0.00 0.00 40 1005.1
20260503215421 22 261 1.6 3.2 0.00 0.00 0.00 40 1005.0
20260503214919 22 345 4.8 6.4 0.00 0.00 0.00 41 1005.2
20260503214416 22 311 6.4 9.7 0.00 0.00 0.00 40 1005.3
20260503213914 22 245 6.4 9.7 0.00 0.00 0.00 40 1005.3
20260503213412 22 262 6.4 9.7 0.00 0.00 0.00 40 1005.4
20260503212908 22 266 4.8 4.8 0.00 0.00 0.00 40 1005.3
20260503212406 22 357 4.8 4.8 0.00 0.00 0.00 40 1005.3
20260503211903 22 275 8.0 11.3 0.00 0.00 0.00 38 1005.4
20260503211359 22 339 4.8 6.4 0.00 0.00 0.00 40 1005.4
20260503210854 22 299 3.2 4.8 0.00 0.00 0.00 38 1005.7
20260503210352 22 2 6.4 6.4 0.00 0.00 0.00 38 1005.6
20260503205847 22 12 3.2 4.8 0.00 0.00 0.00 38 1005.5
20260503205344 22 339 4.8 4.8 0.00 0.00 0.00 39 1005.7
20260503204840 22 253 4.8 6.4 0.00 0.00 0.00 39 1005.8
20260503204338 22 287 3.2 6.4 0.00 0.00 0.00 39 1006.0
20260503203835 22 329 6.4 6.4 0.00 0.00 0.00 40 1005.7
20260503203332 22 253 1.6 3.2 0.00 0.00 0.00 41 1005.9
20260503202829 22 260 3.2 4.8 0.00 0.00 0.00 40 1006.0
20260503202327 22 270 1.6 1.6 0.00 0.00 0.00 40 1006.1
20260503201825 22 335 3.2 4.8 0.00 0.00 0.00 41 1005.9
20260503201321 22 297 6.4 6.4 0.00 0.00 0.00 40 1006.0
20260503200819 21 293 1.6 1.6 0.00 0.00 0.00 41 1006.0
20260503200315 22 301 6.4 9.7 0.00 0.00 0.00 40 1006.2
20260503195813 22 316 3.2 6.4 0.00 0.00 0.00 40 1006.3
20260503195309 21 95 4.8 11.3 0.00 0.00 0.00 41 1006.2
20260503194807 22 288 4.8 4.8 0.00 0.00 0.00 41 1006.3
20260503194303 21 171 3.2 4.8 0.00 0.00 0.00 42 1006.4
20260503193759 21 258 11.3 16.1 0.00 0.00 0.00 40 1006.6
20260503193255 21 287 8.0 12.9 0.00 0.00 0.00 41 1006.4
20260503192751 21 56 6.4 9.7 0.00 0.00 0.00 42 1006.7
20260503192246 21 317 3.2 3.2 0.00 0.00 0.00 43 1006.7
20260503191743 21 288 4.8 4.8 0.00 0.00 0.00 43 1006.6
20260503191240 21 288 8.0 11.3 0.00 0.00 0.00 42 1006.8
20260503190737 21 274 6.4 6.4 0.00 0.00 0.00 43 1006.7